This is the latest recevied weather packets stored in our database for station/object VK4AB-13. If no packets are shown the sender has not sent any weather packets the latest 10 day(s).
| Time | Temp. | Humidity | Pressure | Rain* | Wind** | Luminosity | Snow |
|---|---|---|---|---|---|---|---|
| 1777786731 | 26.11° C | 56% | 1017.8 hPa | 0 mm | - | 158 W/m² | - |
| 1777786431 | 26.67° C | 56% | 1017.8 hPa | 0 mm | - | 163 W/m² | - |
| 1777786131 | 26.67° C | 55% | 1017.8 hPa | 0 mm | - | 220 W/m² | - |
| 1777785882 | 26.67° C | 56% | 1017.8 hPa | 0 mm | - | 425 W/m² | - |
| 1777785831 | 26.67° C | 56% | 1017.8 hPa | 0 mm | - | 425 W/m² | - |
| 1777785531 | 26.67° C | 57% | 1017.7 hPa | 0 mm | - | 213 W/m² | - |
| 1777785402 | 26.67° C | 58% | 1017.7 hPa | 0 mm | - | 485 W/m² | - |
| 1777785231 | 26.67° C | 58% | 1017.7 hPa | 0 mm | - | 485 W/m² | - |
| 1777784931 | 26.67° C | 57% | 1017.7 hPa | 0 mm | - | 385 W/m² | - |
| 1777784914 | 26.67° C | 55% | 1017.8 hPa | 0 mm | - | 415 W/m² | - |
| 1777784631 | 26.67° C | 55% | 1017.8 hPa | 0 mm | - | 415 W/m² | - |
| 1777784331 | 26.67° C | 56% | 1017.8 hPa | 0 mm | - | 285 W/m² | - |
| 1777784031 | 26.67° C | 56% | 1017.7 hPa | 0 mm | - | 476 W/m² | - |
| 1777783731 | 26.67° C | 55% | 1017.6 hPa | 0 mm | - | 471 W/m² | - |
| 1777783431 | 26.67° C | 55% | 1017.7 hPa | 0 mm | - | 476 W/m² | - |
| 1777783131 | 26.67° C | 54% | 1017.8 hPa | 0 mm | - | 520 W/m² | - |
| 1777783126 | 26.67° C | 54% | 1017.8 hPa | 0 mm | - | 218 W/m² | - |
| 1777782831 | 26.67° C | 54% | 1017.8 hPa | 0 mm | - | 218 W/m² | - |
| 1777782531 | 27.22° C | 53% | 1017.6 hPa | 0 mm | - | 596 W/m² | - |
| 1777782231 | 27.78° C | 53% | 1017.8 hPa | 0 mm | - | 638 W/m² | - |
| 1777781931 | 27.22° C | 51% | 1017.8 hPa | 0 mm | - | 582 W/m² | - |
| 1777781631 | 27.22° C | 50% | 1017.8 hPa | 0 mm | - | 529 W/m² | - |
| 1777781331 | 27.22° C | 50% | 1017.8 hPa | 0 mm | - | 570 W/m² | - |
| 1777781031 | 27.22° C | 52% | 1017.8 hPa | 0 mm | - | 566 W/m² | - |
| 1777780731 | 27.22° C | 52% | 1017.8 hPa | 0 mm | - | 578 W/m² | - |
* Rain latest hour (hover to see other rain measurements)
** Current wind speed in m/s (hover to see current wind gust speed)